Regional Weather Roundup
Issued by NWS Northern Indiana

Home | Current Version | Previous Version | Text Only | Print | Product List | Glossary On
Versions: 1 2 3 4 5 6 7 8 9 10 11 12 13 14 15 16 17 18 19 20 21 22 23 24 25 26 27 28 29 30 31 32 33 34 35 36 37 38 39 40 41 42 43 44 45 46 47 48 49 50
000
ASUS43 KIWX 160800
RWRIWX

KIWX WEATHER ROUNDUP
NATIONAL WEATHER SERVICE NORTHERN INDIANA
300 AM EST TUE JAN 16 2018

NOTE: "FAIR" INDICATES FEW OR NO CLOUDS BELOW 12,000 FEET WITH NO
SIGNIFICANT WEATHER AND/OR OBSTRUCTIONS TO VISIBILITY.

* THESE STATIONS ARE NOT UNDER NWS QUALITY CONTROL. THEY ALSO MAY NOT
  REPORT WEATHER SUCH AS PRECIPITATION OR FOG.

INZ001>027-160900-
NORTHERN INDIANA

CITY           SKY/WX    TMP DP  RH WIND       PRES   REMARKS
KNOX*          CLOUDY     3   0  85 SW14      30.38R WCI -15
SOUTH BEND     CLOUDY     2  -2  83 S10       30.36R WCI -14
GOSHEN         FAIR       0  -4  83 SW10      30.36R WCI -16
MONTICELLO*    FAIR       1  -6  75 W12       30.42S WCI -16
FORT WAYNE     MOCLDY     7   1  76 W13       30.37R WCI  -9
PERU/GRISSOM   CLOUDY     1  -3  84 W13       30.39S WCI -17

$$
INZ028>050-160900-
CENTRAL INDIANA

CITY           SKY/WX    TMP DP  RH WIND       PRES   REMARKS
LAFAYETTE      CLOUDY     0  -5  79 W12       30.46R WCI -17
MUNCIE*        MOCLDY     5  -2  72 W16       30.40R WCI -14
INDIANAPOLIS   FAIR      -1  -5  82 SW10      30.45R WCI -17

$$
MIZ043>046-050>051-056>058-064>065-071>073-077>080-160900-
SOUTHWEST LOWER MICHIGAN

CITY           SKY/WX    TMP DP  RH WIND       PRES   REMARKS
BATTLE CREEK   CLOUDY    10   6  84 SW9       30.30R WCI  -3
BENTON HARBOR  LGT SNOW   8   3  80 S10       30.33R WCI  -6
COLDWATER*     FLURRIES   8   5  84 W12       30.33R WCI  -7
HILLSDALE*     LGT SNOW  10   5  79 W9        30.28R WCI  -2
HOLLAND        LGT SNOW  16  12  84 S5        30.29R FOG     WCI   9
GRAND RAPIDS   LGT SNOW  16  13  88 E3        30.29R FOG
KALAMAZOO      CLOUDY    10   5  80 SW10      30.32R WCI  -4
STURGIS*       CLOUDY     6   2  82 W9        30.33R WCI  -8
THREE RIVERS*  FLURRIES   8   3  81 SW9       30.34R WCI  -6

$$
OHZ001>008-015>018-024>025-160900-
NORTHWEST OHIO

CITY           SKY/WX    TMP DP  RH WIND       PRES   REMARKS
DEFIANCE       CLOUDY     7   1  76 W9        30.37R WCI  -7
FINDLAY        FAIR       6  -1  73 SW13      30.36S WCI -10
TOLEDO EXPRESS FLURRIES  11   7  84 SW8       30.34R WCI  -1
TOLEDO METCALF CLOUDY     8   3  80 SW13      30.36R WCI  -8
LIMA           CLOUDY     6   1  80 W15       30.37R WCI -12

$$
AND FOR LAKE MICHIGAN COASTAL AND OPEN LAKE BUOY OBSERVATIONS

STATION/POSITION TEMP    WIND        PRES    VSBY  WAVE
                 AIR SEA DIR/SP/G                  HT/PER
                 (F)     (DEG/KT/KT) (MB)    (MI)  (FT/S)
CALUMET HARBOR     6     220/  8/ 14 1027.0R
MICHIGAN CITY            190/ 16/ 17   N/A
BURNS HARBOR       7     220/ 12/ 18 1028.8R
SAINT JOSEPH      10     160/  5/  9 1027.1

$$
&&



USA.gov is the U.S. government's official web portal to all federal, state and local government web resources and services.